Location: �perlecques
(50.8057°N, 2.1521°E)
Time: 11:59:34
(UTC+00:00)

Vanguard 1 Rocket - Pass Details

Date: 03 August 2021
Orbit: 650 x 4226 km, 34.3° (Epoch: 17 September)

Event Time Altitude Azimuth Distance (km) Brightness Sun altitude
Rises 11:42:33 0° 253° (WSW) 7,565 12.2 56.4°
Reaches altitude 10° 11:48:54 10° 246° (WSW) 5,994 11.9 56.5°
Maximum altitude 12:02:46 35° 190° (S) 2,918 11.5 56.5°
Drops below altitude 10° 12:10:42 10° 129° (SE) 3,424 10.7 56.5°
Sets 12:13:16 0° 119° (ESE) 4,067 10.9 56.4°
